AirNav   Everest Fuels
 
 861 users online  

C55 Ogle County Airport
Mount Morris, Illinois, USA

GOING TO MOUNT MORRIS?


FAA INFORMATION EFFECTIVE 21 MAY 2020

Location

FAA Identifier: C55
Lat/Long: 42-02-14.1030N 089-23-34.3870W
42-02.235050N 089-23.573117W
42.0372508,-89.3928853
(estimated)
Elevation: 929 ft. / 283.2 m (surveyed)
Variation: 00E (1985)
From city: 2 miles SE of MOUNT MORRIS, IL
Time zone: UTC -5 (UTC -6 during Standard Time)
Zip code: 61061

Airport Operations

Airport use: Open to the public
Activation date: 05/1980
Control tower: no
ARTCC: CHICAGO CENTER
FSS: KANKAKEE FLIGHT SERVICE STATION
NOTAMs facility: IKK (NOTAM-D service available)
Attendance: UNATTENDED
Pattern altitude: 1329 ft. MSL
TPA: 400 FT AGL ULTRALIGHTS, 800 FT AGL SNGL ENG.
Wind indicator: yes
Segmented circle: no
Lights: ACTVT NSTD LIRL RY 09/27 - CTAF.
Beacon: white-green (lighted land airport)
ACTVT ROTG BCN - CTAF.

Airport Communications

CTAF: 122.9
WX AWOS-AV at C73 (12 nm S): 118.575 (815-288-2039)
WX AWOS-3 at FEP (15 nm NW): 120.525 (815-233-4472)
WX ASOS at RFD (16 nm NE): PHONE 815-484-6229
WX AWOS-3 at RPJ (16 nm SE): 125.2 (815-562-2955)

Nearby radio navigation aids

VOR radial/distance  VOR name  Freq  Var
PLLr051/7.3POLO VOR/DME111.2003E
RFDr216/14.2ROCKFORD VOR/DME110.8001E
JVLr199/33.8JANESVILLE VOR/DME114.3003E

Airport Services

Parking: tiedowns

Runway Information

Runway 9/27

Dimensions: 2640 x 200 ft. / 805 x 61 m
Surface: turf, in good condition
Runway edge lights: non-standard
RWY 09/27 NSTD LIRL DUE TO SPACING; INTENSITY & NON-FRANGIBLE - ORANGE CONES ADJACENT TO LIGHTS.
RUNWAY 9  RUNWAY 27
Latitude: 42-02.234667N42-02.235000N
Longitude: 089-23.889667W089-23.306333W
Elevation: 920.0 ft.920.0 ft.
Traffic pattern: leftleft

Airport Ownership and Management from official FAA records

Ownership: Privately-owned
Owner: OGLE COUNTY PILOTS INC
PO BOX 61
MT MORRIS, IL 61054
Phone (815) 973-3234
Manager: DOUG SCHILLER
PO BOX 61
MT MORRIS, IL 61054
Phone (815) 973-3234
EMAIL ADDRESS: SDOUG667@AOL.COM (ALL LOWER CASE)

Airport Operational Statistics

Aircraft based on the field: 14
Single engine airplanes: 13
Ultralights: 1
    
Aircraft operations: avg 125/week *
92% local general aviation
8% transient general aviation
* for 12-month period ending 31 July 2019

Additional Remarks

RWY 9/27 NOT PLOWED DURING WINTER MONTHS; USE AT OWN RISK
FOR CD CTC CHICAGO ARTCC AT 630-906-8921.
A52-09 +10 FT CORN MAY BE ON RY ENDS DURING GROWING SEASON.

Instrument Procedures

There are no published instrument procedures at C55.

Some nearby airports with instrument procedures:

C73 - Dixon Municipal Airport-Charles R. Walgreen Field (12 nm S)
KFEP - Albertus Airport (15 nm NW)
KRFD - Chicago/Rockford International Airport (16 nm NE)
KRPJ - Rochelle Municipal Airport-Koritz Field (16 nm SE)
KSQI - Whiteside County Airport-Jos H Bittorf Field (22 nm SW)
 
Loc | Ops | Rwys | IFR | FBO | Links
Com | Nav | Svcs | Stats | Notes
Area around C55 (Ogle County Airport)
 
Road maps at: MapQuest Bing Google
 
Aerial photo
WARNING: Photo may not be current or correct
Aerial photo of C55 (Ogle County Airport)
Do you have a better or more recent aerial photo of Ogle County Airport that you would like to share? If so, please send us your photo.

 
Sectional chart

 
Airport distance calculator
Flying to Ogle County Airport? Find the distance to fly.

From to C55

Sunrise and sunset
Times for 29-May-2020
 Local
(UTC-5)
 Zulu
(UTC)
Morning civil twilight04:5309:53
Sunrise05:2610:26
Sunset20:2401:24
Evening civil twilight20:5701:57

Current date and time
Zulu (UTC)  29-May-2020 12:38:07
Local (UTC-5)  29-May-2020 07:38:07
 
METAR
KFEP 
15nm NW 
291215Z AUTO 32007KT 10SM CLR 14/11 A2999 RMK AO2 T01430107
KRFD 
16nm NE 
291154Z 32006KT 10SM CLR 17/12 A2996 RMK AO2 SLP143 60000 70018 T01670117 10172 20150 51013 $
KRPJ 
17nm SE 
291215Z AUTO 30006KT 10SM CLR 17/15 A2997 RMK AO2 T01650147
KSQI 
21nm SW 
291156Z 31009KT 10SM CLR 16/12 A2997 RMK AO2 SLP015 70005 T01610122 10178 20144 53015
TAF
KRFD 
16nm NE 
291120Z 2912/3012 30005KT P6SM SKC FM291600 32012G20KT P6SM BKN050 FM300100 32007KT P6SM SCT050
NOTAMs
Click for the latest NOTAMs
NOTAMs are issued by the DoD/FAA and will open in a separate window not controlled by AirNav.

 

 
 

Would you like to see your business listed on this page?

 If your business provides an interesting product or service to pilots, flight crews, aircraft, or users of the Ogle County Airport, you should consider listing it here.  To start the listing process, click on the button below
 
Add a business
 

Other Pages about Ogle County Airport

oglecountyairport.com/news.php
 
Update a link
 
Copyright © AirNav, LLC. All rights reserved. Privacy Policy  Contact